This is the latest recevied weather packets stored in our database for station/object K3FAZ. If no packets are shown the sender has not sent any weather packets the latest 10 day(s).
| Time | Temp. | Humidity | Pressure | Rain* | Wind** | Luminosity | Snow |
|---|---|---|---|---|---|---|---|
| 1777467248 | 12.22° C | 94% | 1013 hPa | 0 mm | - | 45 W/m² | - |
| 1777466944 | 12.22° C | 94% | 1013.1 hPa | 0 mm | - | 48 W/m² | - |
| 1777466642 | 12.22° C | 94% | 1013.4 hPa | 0 mm | - | 42 W/m² | - |
| 1777466339 | 12.22° C | 94% | 1013.5 hPa | 0 mm | - | 42 W/m² | - |
| 1777466034 | 12.22° C | 94% | 1013.3 hPa | 0 mm | - | 49 W/m² | - |
| 1777465730 | 12.22° C | 95% | 1013.1 hPa | 0 mm | - | 57 W/m² | - |
| 1777465427 | 11.67° C | 95% | 1012.9 hPa | 0 mm | - | 45 W/m² | - |
| 1777465126 | 11.67° C | 95% | 1012.9 hPa | 0 mm | - | 40 W/m² | - |
| 1777464821 | 11.67° C | 95% | 1013 hPa | 0 mm | - | 44 W/m² | - |
| 1777464522 | 11.67° C | 95% | 1013.1 hPa | 0 mm | - | 42 W/m² | - |
| 1777464219 | 11.67° C | 95% | 1013.3 hPa | 0 mm | - | 34 W/m² | - |
| 1777463913 | 11.67° C | 95% | 1013.8 hPa | 0 mm | - | 32 W/m² | - |
| 1777463610 | 11.67° C | 95% | 1013.7 hPa | 0 mm | - | 39 W/m² | - |
| 1777463304 | 11.67° C | 95% | 1013.6 hPa | 0 mm | - | 41 W/m² | - |
| 1777463001 | 11.67° C | 95% | 1013.9 hPa | 0 mm | - | 42 W/m² | - |
| 1777462697 | 11.67° C | 95% | 1014.2 hPa | 0 mm | - | 42 W/m² | - |
| 1777462392 | 11.67° C | 95% | 1014.4 hPa | 0 mm | - | 40 W/m² | - |
| 1777462089 | 11.67° C | 96% | 1014.6 hPa | 0 mm | - | 19 W/m² | - |
| 1777461785 | 11.67° C | 96% | 1014.5 hPa | 0 mm | - | 26 W/m² | - |
| 1777461481 | 11.67° C | 96% | 1014.4 hPa | 0 mm | - | 23 W/m² | - |
| 1777461177 | 11.67° C | 96% | 1014.4 hPa | 0 mm | - | 16 W/m² | - |
| 1777460878 | 11.67° C | 96% | 1014.3 hPa | 0 mm | - | 13 W/m² | - |
| 1777460574 | 11.67° C | 96% | 1014.2 hPa | 0 mm | - | 16 W/m² | - |
| 1777460269 | 11.67° C | 96% | 1014.1 hPa | 0 mm | - | 13 W/m² | - |
| 1777459967 | 11.11° C | 96% | 1013.9 hPa | 0 mm | - | 11 W/m² | - |
* Rain latest hour (hover to see other rain measurements)
** Current wind speed in m/s (hover to see current wind gust speed)